Theta_e
312 312 311 311 311 311 311 311 311 311 311 311 311 312 312 312 312 312 312 313 314 315 315 315 316 316 315 307 303 310 314 318 315 312 307 305 305 307 303 305 307 307 310 313 316 316 317
311 311 311 311 311 311 311 311 311 311 311 311 311 311 311 311 311 312 312 313 314 314 314 316 317 316 312 302 310 313 313 312 313 311 308 307 304 306 305 305 305 308 309 310 313 313 315
311 311 310 310 310 310 311 311 311 311 311 311 311 311 310 311 311 311 312 313 313 313 315 316 317 315 309 303 312 313 314 312 312 311 307 309 309 304 305 304 309 307 302 306 309 310 310
310 310 310 310 311 311 311 311 311 311 311 311 311 311 310 310 311 311 312 312 312 314 316 318 316 316 305 310 313 312 312 311 312 312 310 311 310 306 304 304 302 301 303 298 305 308 310
311 310 311 311 311 311 311 311 311 311 312 311 312 311 310 310 310 311 311 311 313 315 316 316 315 311 302 311 307 309 311 307 309 310 310 309 308 303 303 298 295 297 293 298 301 307 307
311 311 311 311 311 311 311 311 311 311 311 311 311 311 310 309 310 310 311 310 314 315 316 317 312 306 307 301 306 307 310 309 306 306 305 304 303 299 299 296 289 292 293 296 297 304 306
311 311 312 312 312 311 311 312 311 312 312 311 310 309 309 309 309 310 311 315 310 310 310 303 302 302 301 306 308 306 308 306 306 304 298 302 297 294 297 298 298 297 294 294 299 304 303
311 312 312 312 312 311 311 311 311 311 311 311 310 309 309 309 310 310 312 307 306 308 300 306 305 303 305 306 300 304 308 301 301 296 299 297 294 298 299 298 296 295 293 293 297 301 302
311 311 312 311 311 311 311 311 311 311 311 311 310 310 309 309 310 310 310 308 313 312 301 300 302 302 303 304 300 301 304 302 298 296 296 294 297 300 297 296 294 295 293 293 293 298 301
311 311 311 311 311 310 310 310 310 311 310 310 310 310 310 309 307 312 310 312 314 312 296 296 298 301 302 303 299 305 305 302 299 295 296 296 299 296 295 294 295 291 296 295 293 293 291
311 311 311 311 311 309 310 309 310 310 310 310 310 310 309 307 313 310 311 315 314 310 287 296 298 306 303 299 299 300 306 302 295 296 296 294 295 295 294 294 296 293 297 295 294 292 293
311 311 311 311 311 310 309 309 310 309 309 309 310 309 308 311 316 312 315 314 310 295 284 293 298 297 297 299 298 300 300 303 302 297 297 296 301 299 297 298 296 297 294 294 294 292 286
310 311 311 311 311 311 310 310 310 310 309 309 310 308 308 314 309 315 315 309 295 289 296 293 293 296 296 295 295 296 296 295 292 289 290 294 295 298 300 294 297 294 291 284 282 283 284
310 311 311 311 311 311 311 310 310 309 309 309 308 306 310 315 316 315 312 301 287 292 293 297 295 296 293 294 294 294 294 292 296 295 291 287 286 295 298 296 292 291 291 284 279 281 285
311 311 311 311 311 311 311 310 309 309 308 307 306 314 314 317 316 314 304 294 293 293 295 293 295 292 292 294 294 294 293 292 294 295 288 287 287 296 298 298 296 292 287 293 287 287 283
310 310 310 310 310 311 311 310 310 309 308 307 308 311 313 315 317 310 300 293 295 297 297 296 290 292 289 292 291 292 292 294 292 296 298 293 286 294 296 298 298 295 295 287 287 280 278
309 309 310 310 310 310 311 311 310 309 307 306 309 304 311 314 312 304 295 294 295 299 298 294 293 292 292 291 292 291 291 294 296 295 297 294 291 290 295 291 292 292 290 291 291 288 281
309 310 310 311 311 310 310 310 309 308 306 306 308 300 312 309 300 302 296 294 293 297 299 297 297 294 292 292 291 291 291 293 298 297 291 295 292 287 289 296 298 295 293 292 287 286 289
309 310 310 311 311 310 310 310 309 308 306 306 302 303 311 307 296 297 298 296 296 296 296 295 294 295 296 292 288 293 293 297 298 296 292 296 290 284 286 290 295 291 293 293 293 291 288
309 310 310 310 310 310 310 309 309 307 305 307 302 297 304 307 304 297 296 295 293 297 296 298 296 297 294 292 294 292 291 295 298 297 298 297 291 287 284 286 288 287 290 293 292 285 289
310 310 310 310 310 310 309 307 306 305 304 306 304 300 300 295 298 296 297 296 292 293 296 297 295 294 293 289 291 290 293 294 297 298 298 295 289 290 291 292 291 290 290 291 290 292 287
309 309 310 309 309 309 307 306 305 306 305 306 298 296 299 296 296 294 296 295 293 294 295 293 292 293 293 289 290 289 292 293 291 296 295 297 288 291 289 292 292 289 292 292 292 292 291
309 309 308 307 306 306 307 306 306 305 305 304 303 303 297 295 297 293 293 292 292 293 295 296 294 292 291 294 297 299 299 299 296 294 293 292 290 289 285 291 291 287 290 292 292 293 292
308 307 305 304 304 304 305 306 306 305 305 307 304 302 293 290 294 294 293 293 291 292 291 296 296 294 298 303 303 303 302 300 299 296 296 291 290 290 286 288 279 290 297 297 295 296 296
306 304 303 303 303 303 303 303 304 305 306 304 307 303 296 288 293 293 295 293 294 295 293 295 298 300 303 301 295 294 297 295 296 298 296 295 289 286 283 283 287 289 293 293 292 293 299
304 303 302 302 302 302 302 302 303 303 304 304 304 310 302 290 292 297 294 294 291 291 293 296 300 305 302 296 294 288 287 290 289 291 298 295 291 287 286 282 279 290 295 299 298 287 298
302 302 302 301 301 301 302 302 302 303 303 303 303 310 302 295 298 297 292 292 294 292 291 294 295 297 302 294 289 286 288 293 288 287 288 290 287 284 285 284 288 294 296 298 285 289 299
302 301 301 300 300 301 301 301 301 302 302 303 302 307 302 296 299 301 300 295 295 294 288 294 294 294 297 292 290 289 286 290 289 292 290 287 288 287 287 284 282 299 297 289 297 301 299
300 300 299 300 300 300 301 301 302 302 303 303 299 306 308 297 297 304 304 304 302 300 295 295 293 293 296 294 295 294 289 291 290 287 297 290 294 289 290 291 300 302 300 301 301 297 298
Wind_Speed
15 15 15 16 16 16 16 15 16 16 16 17 17 18 19 19 19 19 19 19 18 18 19 17 16 14 13 9 6 10 6 10 12 9 8 11 14 16 24 24 25 32 30 29 27 23 24
15 15 15 15 15 15 16 16 17 17 17 17 18 18 19 19 19 18 19 18 17 17 18 17 15 12 12 11 4 2 6 8 10 9 9 9 11 15 20 24 26 27 29 32 27 27 27
15 15 15 15 15 16 16 17 17 18 18 18 18 18 19 19 19 19 19 18 17 17 16 12 11 10 11 5 3 6 7 8 9 7 10 11 8 13 13 18 23 26 31 30 26 31 32
15 15 15 16 16 17 17 18 18 18 18 18 18 17 19 20 19 19 19 19 20 17 11 9 8 13 8 5 6 6 8 8 6 5 8 11 12 17 20 20 27 24 23 28 33 31 29
16 16 16 17 17 18 19 19 20 20 20 20 19 19 21 22 21 21 21 21 21 6 5 7 11 10 3 7 2 10 12 12 10 11 9 7 14 17 17 17 19 21 25 30 32 32 31
17 17 17 18 18 18 19 20 20 22 22 22 21 21 20 21 22 22 21 23 5 8 9 9 7 8 5 5 8 12 7 8 10 12 14 15 15 17 17 15 20 23 28 30 33 28 30
17 17 17 18 19 19 19 20 20 21 21 22 23 23 22 21 20 20 18 6 8 9 11 12 11 10 6 6 9 7 4 8 8 11 13 11 14 16 19 20 23 24 28 35 31 27 31
17 17 18 19 20 20 20 20 21 22 22 22 24 24 23 20 18 19 12 6 6 8 11 13 11 10 7 5 9 8 2 10 10 15 16 17 20 19 20 20 24 26 27 32 31 34 28
16 17 17 18 19 18 20 20 21 21 21 21 23 23 23 19 16 10 5 7 7 8 9 1 3 8 7 6 14 13 7 10 14 17 18 20 22 22 23 21 24 25 25 28 31 27 28
17 17 18 19 18 20 22 22 22 22 23 23 24 23 20 18 9 4 2 4 8 6 8 11 7 4 7 8 18 6 6 8 15 19 20 16 17 13 15 22 22 27 22 25 26 26 23
17 17 17 17 18 21 21 23 22 23 23 23 24 23 18 8 11 4 8 8 9 6 7 5 5 7 7 12 8 4 6 16 14 19 17 18 23 22 19 19 20 24 23 25 27 26 30
16 16 17 18 19 19 23 21 21 22 24 25 24 22 13 7 7 6 7 7 6 9 1 4 2 6 11 12 6 7 11 14 20 14 16 21 17 23 22 18 19 17 25 29 28 22 25
16 17 17 17 19 20 20 21 22 24 25 26 25 20 8 8 6 7 7 7 8 8 6 3 7 11 13 13 10 6 14 14 9 10 16 21 23 12 17 17 19 20 21 15 18 20 20
17 17 17 18 19 19 21 21 23 24 25 27 27 19 8 6 6 6 8 10 6 7 9 10 10 16 14 6 7 8 15 14 11 8 11 11 16 18 8 17 20 14 19 11 19 15 20
18 18 19 20 19 19 20 21 23 25 25 29 30 7 8 4 5 6 10 6 11 11 8 10 14 9 9 4 10 13 12 11 7 7 7 12 10 13 20 10 19 24 11 21 27 20 16
18 19 20 19 19 20 20 20 22 24 25 28 9 6 1 4 4 7 9 10 8 4 8 9 13 5 13 15 13 11 12 6 5 5 11 17 19 16 11 11 18 22 17 11 11 19 19
17 18 19 19 19 20 20 20 21 23 26 31 6 6 7 5 5 8 5 8 8 5 6 7 12 16 14 16 14 16 15 15 8 10 12 18 16 17 13 6 16 16 15 12 18 13 11
17 17 19 19 19 19 19 19 19 21 24 12 7 5 5 5 7 3 7 7 2 8 5 8 13 10 10 12 15 18 17 12 10 12 17 16 8 14 22 12 18 14 17 1 9 14 15
16 18 19 18 18 18 18 17 17 19 18 11 7 5 5 4 4 6 7 10 5 8 7 6 8 11 12 15 10 12 17 15 14 15 5 8 7 11 17 6 8 4 15 9 8 12 17
17 18 18 18 18 17 16 15 16 18 19 10 6 5 0 1 2 8 11 9 6 3 8 9 10 15 13 15 13 11 19 9 12 16 14 11 14 16 17 17 7 10 18 12 9 6 15
18 18 17 16 16 16 14 14 17 19 21 10 4 3 4 5 5 11 12 13 11 9 2 6 8 9 10 11 19 21 13 19 19 20 15 9 12 17 21 20 19 16 13 16 18 17 19
17 17 16 15 15 14 13 15 15 17 25 5 5 6 7 11 5 8 10 7 9 8 13 15 14 13 14 16 17 24 21 19 7 13 5 6 11 14 19 20 19 16 18 17 18 20 24
14 14 16 16 16 16 14 14 14 15 15 3 4 1 3 8 7 3 6 8 12 12 11 7 9 14 17 19 18 22 23 21 14 13 15 10 7 8 13 15 12 14 13 19 18 18 20
13 15 17 16 15 15 15 15 11 11 11 6 4 3 1 6 10 11 7 11 12 13 17 21 20 18 13 17 22 24 24 17 8 9 8 7 13 12 13 13 9 8 12 14 16 12 8
14 15 15 15 15 14 14 15 14 12 10 7 4 4 1 7 10 16 11 6 12 15 15 19 17 10 14 17 14 12 2 5 9 8 7 11 4 4 4 7 15 18 13 10 6 15 20
13 14 15 15 15 15 14 13 13 12 10 9 6 4 4 4 6 16 17 14 11 11 15 5 10 13 9 9 7 10 5 5 4 1 8 5 5 3 6 6 5 3 4 7 10 15 6
12 13 14 15 15 15 14 13 13 13 12 8 7 6 4 7 13 9 7 9 7 6 8 13 7 8 5 3 4 3 7 7 5 6 4 3 3 6 12 9 9 7 7 5 5 3 7
12 12 14 14 15 15 14 14 13 13 13 9 7 6 5 6 16 23 20 11 8 8 5 8 9 3 7 4 3 2 3 5 5 10 7 4 4 3 3 5 3 9 13 5 10 20 21
12 12 14 14 15 16 16 15 14 14 13 11 10 4 1 4 11 23 25 25 24 23 8 4 5 6 5 5 3 3 3 4 6 6 7 4 3 4 4 7 17 16 8 8 16 17 18
Wind_Direction
5 2 1 0 358 355 353 350 347 345 342 340 339 338 336 333 331 330 326 325 323 320 313 308 304 305 293 234 63 119 236 238 269 316 288 279 273 258 246 247 246 241 247 251 253 255 263
5 3 1 0 357 354 350 347 344 342 339 337 336 336 336 332 329 327 322 319 318 317 310 303 302 303 260 258 41 319 298 286 272 313 319 282 282 281 286 269 250 255 252 253 250 252 254
6 4 3 1 359 356 353 348 343 339 336 333 332 333 333 329 326 323 319 315 313 310 297 278 280 267 276 39 333 317 285 311 297 299 290 303 315 275 282 262 254 263 266 265 256 243 245
6 5 3 1 360 358 354 349 346 343 339 335 333 332 333 330 324 320 316 312 307 300 275 261 235 260 287 98 332 272 336 315 318 259 272 284 282 280 270 267 274 281 272 248 243 245 242
3 2 0 359 358 356 353 350 347 344 342 338 334 331 331 329 326 321 317 310 306 268 214 201 226 240 183 136 287 343 332 320 309 289 280 271 270 269 271 253 255 245 251 246 248 236 239
0 360 358 357 357 355 352 349 346 346 343 341 338 333 329 326 322 316 313 299 311 182 208 217 258 246 234 353 343 311 294 293 315 311 290 240 250 253 245 240 250 254 244 246 256 255 227
358 357 357 357 356 354 350 348 346 344 341 341 339 331 327 323 317 309 312 212 206 196 217 295 312 289 283 328 313 309 278 303 251 263 268 278 267 255 262 272 267 269 271 275 266 255 249
358 357 357 357 357 354 350 348 346 345 342 337 337 334 327 321 312 303 290 356 40 339 296 272 251 260 279 297 295 304 110 283 299 288 295 275 260 258 262 267 269 272 274 269 268 270 277
357 358 357 354 352 350 350 349 345 342 339 336 334 334 328 320 316 283 320 32 334 331 264 86 219 225 233 213 267 293 270 275 284 288 284 281 290 291 281 267 250 252 264 270 271 269 259
357 356 356 353 349 349 349 347 344 340 338 336 332 335 331 321 289 352 128 352 313 337 268 131 193 181 220 253 270 222 283 296 289 287 295 300 291 274 284 269 259 266 263 270 271 269 257
354 353 351 345 348 349 345 346 341 338 334 333 334 334 330 300 319 322 359 319 333 236 260 116 143 62 255 268 292 245 196 250 273 289 297 290 292 290 277 267 263 269 271 261 262 254 259
350 347 345 342 340 343 345 340 338 337 332 331 335 334 325 210 238 18 310 330 247 232 62 167 257 251 301 304 280 281 273 275 271 268 290 289 291 282 267 274 276 287 282 262 251 245 242
346 344 342 336 334 333 333 334 332 332 332 330 332 330 280 307 352 344 317 246 247 279 118 90 331 314 308 289 309 317 313 301 304 323 312 319 291 318 249 254 263 255 259 261 243 228 241
344 338 334 335 335 334 331 330 330 329 329 327 325 319 192 291 321 324 280 253 288 61 1 2 318 297 268 347 315 295 293 306 116 298 309 331 310 354 356 284 272 233 297 240 251 221 235
340 338 337 336 335 334 332 331 330 330 331 330 314 208 234 123 315 295 271 241 355 4 358 329 306 303 320 302 320 310 315 317 348 321 308 318 308 282 289 270 272 266 208 240 265 270 296
342 340 336 332 333 334 332 330 330 331 334 328 310 265 150 5 293 276 261 279 302 4 314 307 298 334 319 322 318 313 319 330 278 274 296 298 294 295 321 303 253 264 272 269 287 264 259
339 335 334 333 332 330 331 330 332 336 335 320 260 260 81 322 273 244 274 312 331 358 323 321 324 309 309 313 306 300 297 289 327 318 320 296 300 292 231 238 285 245 257 241 251 268 296
334 330 331 330 330 330 331 330 333 340 339 325 288 281 59 324 256 250 273 8 22 280 299 286 282 301 292 312 306 303 296 308 313 316 311 320 286 291 285 249 236 251 255 208 249 255 245
326 329 329 332 333 332 333 333 335 339 352 324 312 308 98 300 281 308 312 301 254 287 303 294 281 294 296 292 300 292 308 316 320 317 324 341 292 305 291 314 145 229 298 214 250 273 268
329 330 334 335 336 335 336 339 338 342 338 317 306 331 79 350 307 319 330 306 295 233 294 301 305 283 285 290 290 277 290 319 324 298 306 310 273 261 279 293 150 265 294 285 280 256 281
329 333 335 337 341 342 359 359 347 342 329 304 354 27 21 310 317 328 306 295 286 301 271 278 291 311 323 302 311 296 312 297 300 290 275 235 264 269 273 276 274 268 262 275 274 259 269
330 334 339 347 352 353 349 349 349 347 331 257 344 336 359 289 251 296 295 293 311 332 311 304 281 298 304 289 291 292 294 300 279 303 304 264 274 285 284 283 276 269 255 253 261 269 268
330 344 347 351 347 348 341 339 348 353 346 328 33 136 322 304 266 218 280 331 322 323 293 291 303 286 288 289 294 293 292 282 258 249 280 283 273 291 278 305 298 271 284 245 242 241 253
338 341 341 342 343 345 344 341 339 351 348 317 334 305 307 285 330 309 301 278 289 296 283 295 298 300 305 304 297 282 258 255 266 276 269 253 269 274 271 294 260 270 335 354 323 302 215
337 339 338 339 338 340 341 340 343 342 343 301 270 276 230 287 312 288 264 303 296 292 289 287 287 307 305 305 291 290 306 164 221 205 200 215 239 274 269 254 277 285 307 304 340 293 308
334 335 335 335 337 336 337 339 336 334 333 294 297 217 246 291 255 340 305 294 294 301 289 295 337 329 295 280 281 289 307 345 311 33 189 189 210 239 261 268 271 81 61 329 338 281 61
331 331 333 335 331 332 334 334 329 326 323 300 280 254 258 257 273 255 285 298 318 282 275 295 344 308 247 275 288 277 305 352 344 328 292 279 175 221 245 257 268 102 303 261 254 359 292
324 330 329 330 325 325 324 322 322 314 311 304 294 263 253 262 282 283 278 292 271 236 249 324 307 33 287 262 279 322 296 331 299 299 261 223 289 229 247 266 302 199 313 222 317 310 303
319 325 326 323 322 317 318 318 316 308 306 296 281 282 129 257 280 304 288 276 261 258 239 229 284 320 286 296 307 312 262 258 293 292 319 280 292 275 219 265 311 288 347 296 306 279 288